Year,Month,Day,Hour,Minute,Value (Times are PST for temperature in C)
2012,08,06,00,00,13.50
2012,08,06,00,01,13.50
2012,08,06,00,02,13.60
2012,08,06,00,03,13.60
2012,08,06,00,04,13.50
2012,08,06,00,05,13.50
2012,08,06,00,06,13.50
2012,08,06,00,07,13.50
2012,08,06,00,08,13.40
2012,08,06,00,09,13.40
2012,08,06,00,10,13.40
2012,08,06,00,11,13.40
2012,08,06,00,12,13.40
2012,08,06,00,13,13.40
2012,08,06,00,14,13.40
2012,08,06,00,15,13.40
2012,08,06,00,16,13.30
2012,08,06,00,17,13.30
2012,08,06,00,18,13.30
2012,08,06,00,19,13.30
2012,08,06,00,20,13.30
2012,08,06,00,21,13.30
2012,08,06,00,22,13.30
2012,08,06,00,23,13.30
2012,08,06,00,24,13.30
2012,08,06,00,25,13.30
2012,08,06,00,26,13.30
2012,08,06,00,27,13.30
2012,08,06,00,28,13.30
2012,08,06,00,29,13.30
2012,08,06,00,30,13.30
2012,08,06,00,31,13.30
2012,08,06,00,32,13.30
2012,08,06,00,33,13.30
2012,08,06,00,34,13.30
2012,08,06,00,35,13.30
2012,08,06,00,36,13.30
2012,08,06,00,37,13.30
2012,08,06,00,38,13.30
2012,08,06,00,39,13.30
2012,08,06,00,40,13.30
2012,08,06,00,41,13.30
2012,08,06,00,42,13.30
2012,08,06,00,43,13.30
2012,08,06,00,44,13.30
2012,08,06,00,45,13.30
2012,08,06,00,46,13.30
2012,08,06,00,47,13.30
2012,08,06,00,48,13.40
2012,08,06,00,49,13.40
2012,08,06,00,50,13.40
2012,08,06,00,51,13.40
2012,08,06,00,52,13.40
2012,08,06,00,53,13.40
2012,08,06,00,54,13.40
2012,08,06,00,55,13.40
2012,08,06,00,56,13.40
2012,08,06,00,57,13.40
2012,08,06,00,58,13.40
2012,08,06,00,59,13.40
2012,08,06,01,00,13.40
2012,08,06,01,01,13.40
2012,08,06,01,02,13.40
2012,08,06,01,03,13.40
2012,08,06,01,04,13.40
2012,08,06,01,05,13.40
2012,08,06,01,06,13.40
2012,08,06,01,07,13.40
2012,08,06,01,08,13.40
2012,08,06,01,09,13.40
2012,08,06,01,10,13.40
2012,08,06,01,11,13.40
2012,08,06,01,12,13.40
2012,08,06,01,13,13.40
2012,08,06,01,14,13.40
2012,08,06,01,15,13.40
2012,08,06,01,16,13.40
2012,08,06,01,17,13.40
2012,08,06,01,18,13.40
2012,08,06,01,19,13.40
2012,08,06,01,20,13.40
2012,08,06,01,21,13.40
2012,08,06,01,22,13.40
2012,08,06,01,23,13.40
2012,08,06,01,24,13.40
2012,08,06,01,25,13.40
2012,08,06,01,26,13.40
2012,08,06,01,27,13.40
2012,08,06,01,28,13.40
2012,08,06,01,29,13.50
2012,08,06,01,30,13.50
2012,08,06,01,31,13.50
2012,08,06,01,32,13.50
2012,08,06,01,33,13.60
2012,08,06,01,34,13.60
2012,08,06,01,35,13.60
2012,08,06,01,36,13.60
2012,08,06,01,37,13.60
2012,08,06,01,38,13.60
2012,08,06,01,39,13.60
2012,08,06,01,40,13.60
2012,08,06,01,41,13.70
2012,08,06,01,42,13.70
2012,08,06,01,43,13.70
2012,08,06,01,44,13.70
2012,08,06,01,45,13.70
2012,08,06,01,46,13.70
2012,08,06,01,47,13.70
2012,08,06,01,48,13.70
2012,08,06,01,49,13.70
2012,08,06,01,50,13.70
2012,08,06,01,51,13.70
2012,08,06,01,52,13.70
2012,08,06,01,53,13.80
2012,08,06,01,54,13.80
2012,08,06,01,55,13.80
2012,08,06,01,56,13.80
2012,08,06,01,57,13.80
2012,08,06,01,58,13.80
2012,08,06,01,59,13.80
2012,08,06,02,00,13.80
2012,08,06,02,01,13.80
2012,08,06,02,02,13.80
2012,08,06,02,03,13.80
2012,08,06,02,04,13.80
2012,08,06,02,05,13.80
2012,08,06,02,06,13.80
2012,08,06,02,07,13.80
2012,08,06,02,08,13.80
2012,08,06,02,09,13.80
2012,08,06,02,10,13.80
2012,08,06,02,11,13.80
2012,08,06,02,12,13.80
2012,08,06,02,13,13.80
2012,08,06,02,14,13.80
2012,08,06,02,15,13.90
2012,08,06,02,16,13.90
2012,08,06,02,17,13.90
2012,08,06,02,18,13.90
2012,08,06,02,19,13.90
2012,08,06,02,20,13.90
2012,08,06,02,21,13.90
2012,08,06,02,22,13.90
2012,08,06,02,23,13.90
2012,08,06,02,24,13.90
2012,08,06,02,25,13.90
2012,08,06,02,26,13.90
2012,08,06,02,27,13.90
2012,08,06,02,28,13.90
2012,08,06,02,29,14.00
2012,08,06,02,30,14.00
2012,08,06,02,31,14.00
2012,08,06,02,32,14.00
2012,08,06,02,33,14.00
2012,08,06,02,34,14.00
2012,08,06,02,35,14.00
2012,08,06,02,36,14.00
2012,08,06,02,37,14.00
2012,08,06,02,38,14.00
2012,08,06,02,39,14.00
2012,08,06,02,40,14.00
2012,08,06,02,41,14.00
2012,08,06,02,42,14.00
2012,08,06,02,43,14.00
2012,08,06,02,44,14.00
2012,08,06,02,45,14.10
2012,08,06,02,46,14.10
2012,08,06,02,47,14.10
2012,08,06,02,48,14.10
2012,08,06,02,49,14.10
2012,08,06,02,50,14.10
2012,08,06,02,51,14.10
2012,08,06,02,52,14.10
2012,08,06,02,53,14.10
2012,08,06,02,54,14.10
2012,08,06,02,55,14.10
2012,08,06,02,56,14.20
2012,08,06,02,57,14.20
2012,08,06,02,58,14.20
2012,08,06,02,59,14.20
2012,08,06,03,00,14.20
2012,08,06,03,01,14.20
2012,08,06,03,02,14.20
2012,08,06,03,03,14.20
2012,08,06,03,04,14.20
2012,08,06,03,05,14.20
2012,08,06,03,06,14.20
2012,08,06,03,07,14.20
2012,08,06,03,08,14.30
2012,08,06,03,09,14.30
2012,08,06,03,10,14.30
2012,08,06,03,11,14.30
2012,08,06,03,12,14.30
2012,08,06,03,13,14.30
2012,08,06,03,14,14.30
2012,08,06,03,15,14.30
2012,08,06,03,16,14.30
2012,08,06,03,17,14.30
2012,08,06,03,18,14.30
2012,08,06,03,19,14.30
2012,08,06,03,20,14.30
2012,08,06,03,21,14.30
2012,08,06,03,22,14.30
2012,08,06,03,23,14.40
2012,08,06,03,24,14.40
2012,08,06,03,25,14.40
2012,08,06,03,26,14.40
2012,08,06,03,27,14.40
2012,08,06,03,28,14.40
2012,08,06,03,29,14.40
2012,08,06,03,30,14.40
2012,08,06,03,31,14.40
2012,08,06,03,32,14.40
2012,08,06,03,33,14.40
2012,08,06,03,34,14.40
2012,08,06,03,35,14.40
2012,08,06,03,36,14.50
2012,08,06,03,37,14.50
2012,08,06,03,38,14.50
2012,08,06,03,39,14.50
2012,08,06,03,40,14.50
2012,08,06,03,41,14.50
2012,08,06,03,42,14.50
2012,08,06,03,43,14.60
2012,08,06,03,44,14.60
2012,08,06,03,45,14.60
2012,08,06,03,46,14.60
2012,08,06,03,47,14.60
2012,08,06,03,48,14.60
2012,08,06,03,49,14.60
2012,08,06,03,50,14.60
2012,08,06,03,51,14.60
2012,08,06,03,52,14.60
2012,08,06,03,53,14.60
2012,08,06,03,54,14.60
2012,08,06,03,55,14.60
2012,08,06,03,56,14.60
2012,08,06,03,57,14.60
2012,08,06,03,58,14.60
2012,08,06,03,59,14.60
2012,08,06,04,00,14.70
2012,08,06,04,01,14.70
2012,08,06,04,02,14.70
2012,08,06,04,03,14.70
2012,08,06,04,04,14.70
2012,08,06,04,05,14.70
2012,08,06,04,06,14.70
2012,08,06,04,07,14.70
2012,08,06,04,08,14.70
2012,08,06,04,09,14.70
2012,08,06,04,10,14.70
2012,08,06,04,11,14.70
2012,08,06,04,12,14.70
2012,08,06,04,13,14.80
2012,08,06,04,14,14.80
2012,08,06,04,15,14.80
2012,08,06,04,16,14.80
2012,08,06,04,17,14.80
2012,08,06,04,18,14.80
2012,08,06,04,19,14.80
2012,08,06,04,20,14.80
2012,08,06,04,21,14.80
2012,08,06,04,22,14.80
2012,08,06,04,23,14.80
2012,08,06,04,24,14.80
2012,08,06,04,25,14.80
2012,08,06,04,26,14.80
2012,08,06,04,27,14.90
2012,08,06,04,28,14.90
2012,08,06,04,29,14.90
2012,08,06,04,30,14.90
2012,08,06,04,31,14.90
2012,08,06,04,32,14.90
2012,08,06,04,33,14.90
2012,08,06,04,34,14.90
2012,08,06,04,35,14.90
2012,08,06,04,36,14.90
2012,08,06,04,37,14.90
2012,08,06,04,38,14.90
2012,08,06,04,39,14.90
2012,08,06,04,40,14.90
2012,08,06,04,41,14.90
2012,08,06,04,42,14.90
2012,08,06,04,43,14.90
2012,08,06,04,44,15.00
2012,08,06,04,45,15.00
2012,08,06,04,46,15.00
2012,08,06,04,47,15.00
2012,08,06,04,48,15.00
2012,08,06,04,49,15.00
2012,08,06,04,50,15.00
2012,08,06,04,51,15.00
2012,08,06,04,52,15.00
2012,08,06,04,53,15.00
2012,08,06,04,54,15.00
2012,08,06,04,55,15.00
2012,08,06,04,56,15.00
2012,08,06,04,57,15.00
2012,08,06,04,58,15.00
2012,08,06,04,59,15.10
2012,08,06,05,00,15.10
2012,08,06,05,01,15.10
2012,08,06,05,02,15.10
2012,08,06,05,03,15.10
2012,08,06,05,04,15.10
2012,08,06,05,05,15.10
2012,08,06,05,06,15.10
2012,08,06,05,07,15.10
2012,08,06,05,08,15.10
2012,08,06,05,09,15.10
2012,08,06,05,10,15.20
2012,08,06,05,11,15.20
2012,08,06,05,12,15.20
2012,08,06,05,13,15.20
2012,08,06,05,14,15.20
2012,08,06,05,15,15.20
2012,08,06,05,16,15.20
2012,08,06,05,17,15.20
2012,08,06,05,18,15.20
2012,08,06,05,19,15.20
2012,08,06,05,20,15.20
2012,08,06,05,21,15.20
2012,08,06,05,22,15.20
2012,08,06,05,23,15.20
2012,08,06,05,24,15.30
2012,08,06,05,25,15.30
2012,08,06,05,26,15.30
2012,08,06,05,27,15.30
2012,08,06,05,28,15.30
2012,08,06,05,29,15.30
2012,08,06,05,30,15.30
2012,08,06,05,31,15.30
2012,08,06,05,32,15.30
2012,08,06,05,33,15.30
2012,08,06,05,34,15.30
2012,08,06,05,35,15.30
2012,08,06,05,36,15.30
2012,08,06,05,37,15.30
2012,08,06,05,38,15.30
2012,08,06,05,39,15.30
2012,08,06,05,40,15.40
2012,08,06,05,41,15.40
2012,08,06,05,42,15.40
2012,08,06,05,43,15.40
2012,08,06,05,44,15.40
2012,08,06,05,45,15.40
2012,08,06,05,46,15.40
2012,08,06,05,47,15.40
2012,08,06,05,48,15.40
2012,08,06,05,49,15.40
2012,08,06,05,50,15.40
2012,08,06,05,51,15.40
2012,08,06,05,52,15.40
2012,08,06,05,53,15.40
2012,08,06,05,54,15.40
2012,08,06,05,55,15.40
2012,08,06,05,56,15.40
2012,08,06,05,57,15.50
2012,08,06,05,58,15.50
2012,08,06,05,59,15.50
2012,08,06,06,00,15.50
2012,08,06,06,01,15.50
2012,08,06,06,02,15.50
2012,08,06,06,03,15.50
2012,08,06,06,04,15.50
2012,08,06,06,05,15.50
2012,08,06,06,06,15.50
2012,08,06,06,07,15.50
2012,08,06,06,08,15.50
2012,08,06,06,09,15.50
2012,08,06,06,10,15.50
2012,08,06,06,11,15.50
2012,08,06,06,12,15.50
2012,08,06,06,13,15.50
2012,08,06,06,14,15.50
2012,08,06,06,15,15.60
2012,08,06,06,16,15.60
2012,08,06,06,17,15.60
2012,08,06,06,18,15.60
2012,08,06,06,19,15.60
2012,08,06,06,20,15.60
2012,08,06,06,21,15.60
2012,08,06,06,22,15.60
2012,08,06,06,23,15.60
2012,08,06,06,24,15.60
2012,08,06,06,25,15.60
2012,08,06,06,26,15.60
2012,08,06,06,27,15.60
2012,08,06,06,28,15.60
2012,08,06,06,29,15.70
2012,08,06,06,30,15.70
2012,08,06,06,31,15.70
2012,08,06,06,32,15.70
2012,08,06,06,33,15.70
2012,08,06,06,34,15.70
2012,08,06,06,35,15.70
2012,08,06,06,36,15.70
2012,08,06,06,37,15.70
2012,08,06,06,38,15.70
2012,08,06,06,39,15.70
2012,08,06,06,40,15.70
2012,08,06,06,41,15.70
2012,08,06,06,42,15.70
2012,08,06,06,43,15.70
2012,08,06,06,44,15.70
2012,08,06,06,45,15.70
2012,08,06,06,46,15.70
2012,08,06,06,47,15.70
2012,08,06,06,48,15.70
2012,08,06,06,49,15.70
2012,08,06,06,50,15.70
2012,08,06,06,51,15.70
2012,08,06,06,52,15.70
2012,08,06,06,53,15.80
2012,08,06,06,54,15.80
2012,08,06,06,55,15.80
2012,08,06,06,56,15.70
2012,08,06,06,57,15.80
2012,08,06,06,58,15.80
2012,08,06,06,59,15.80
2012,08,06,07,00,15.80
2012,08,06,07,01,15.80
2012,08,06,07,02,15.80
2012,08,06,07,03,15.80
2012,08,06,07,04,15.80
2012,08,06,07,05,15.80
2012,08,06,07,06,15.80
2012,08,06,07,07,15.80
2012,08,06,07,08,15.80
2012,08,06,07,09,15.80
2012,08,06,07,10,15.80
2012,08,06,07,11,15.80
2012,08,06,07,12,15.80
2012,08,06,07,13,15.80
2012,08,06,07,14,15.80
2012,08,06,07,15,15.80
2012,08,06,07,16,15.80
2012,08,06,07,17,15.80
2012,08,06,07,18,15.80
2012,08,06,07,19,15.80
2012,08,06,07,20,15.80
2012,08,06,07,21,15.80
2012,08,06,07,22,15.80
2012,08,06,07,23,15.90
2012,08,06,07,24,15.90
2012,08,06,07,25,15.90
2012,08,06,07,26,15.90
2012,08,06,07,27,15.90
2012,08,06,07,28,15.90
2012,08,06,07,29,15.90
2012,08,06,07,30,15.90
2012,08,06,07,31,15.90
2012,08,06,07,32,15.90
2012,08,06,07,33,15.90
2012,08,06,07,34,15.90
2012,08,06,07,35,15.90
2012,08,06,07,36,15.90
2012,08,06,07,37,15.90
2012,08,06,07,38,15.90
2012,08,06,07,39,15.90
2012,08,06,07,40,15.90
2012,08,06,07,41,15.90
2012,08,06,07,42,15.90
2012,08,06,07,43,15.90
2012,08,06,07,44,15.90
2012,08,06,07,45,15.90
2012,08,06,07,46,15.90
2012,08,06,07,47,15.90
2012,08,06,07,48,15.90
2012,08,06,07,49,15.90
2012,08,06,07,50,15.90
2012,08,06,07,51,15.90
2012,08,06,07,52,15.90
2012,08,06,07,53,15.90
2012,08,06,07,54,15.90
2012,08,06,07,55,15.90
2012,08,06,07,56,15.90
2012,08,06,07,57,15.90
2012,08,06,07,58,15.90
2012,08,06,07,59,15.90
2012,08,06,08,00,15.90
2012,08,06,08,01,15.90
2012,08,06,08,02,15.90
2012,08,06,08,03,15.90
2012,08,06,08,04,15.90
2012,08,06,08,05,15.90
2012,08,06,08,06,15.90
2012,08,06,08,07,15.90
2012,08,06,08,08,15.90
2012,08,06,08,09,15.90
2012,08,06,08,10,15.90
2012,08,06,08,11,15.90
2012,08,06,08,12,15.90
2012,08,06,08,13,15.90
2012,08,06,08,14,15.90
2012,08,06,08,15,15.90
2012,08,06,08,16,15.90
2012,08,06,08,17,15.90
2012,08,06,08,18,15.90
2012,08,06,08,19,15.90
2012,08,06,08,20,15.90
2012,08,06,08,21,15.90
2012,08,06,08,22,15.90
2012,08,06,08,23,15.90
2012,08,06,08,24,15.90
2012,08,06,08,25,15.90
2012,08,06,08,26,15.90
2012,08,06,08,27,15.90
2012,08,06,08,28,15.90
2012,08,06,08,29,15.90
2012,08,06,08,30,15.90
2012,08,06,08,31,15.90
2012,08,06,08,32,15.90
2012,08,06,08,33,15.90
2012,08,06,08,34,15.90
2012,08,06,08,35,15.90
2012,08,06,08,36,15.90
2012,08,06,08,37,15.90
2012,08,06,08,38,15.90
2012,08,06,08,39,15.90
2012,08,06,08,40,15.90
2012,08,06,08,41,15.90
2012,08,06,08,42,15.90
2012,08,06,08,43,15.90
2012,08,06,08,44,15.90
2012,08,06,08,45,15.90
2012,08,06,08,46,15.90
2012,08,06,08,47,16.00
2012,08,06,08,48,16.00
2012,08,06,08,49,16.00
2012,08,06,08,50,16.00
2012,08,06,08,51,16.00
2012,08,06,08,52,16.00
2012,08,06,08,53,16.00
2012,08,06,08,54,16.00
2012,08,06,08,55,16.00
2012,08,06,08,56,16.00
2012,08,06,08,57,16.00
2012,08,06,08,58,16.10
2012,08,06,08,59,16.10
2012,08,06,09,00,16.10
2012,08,06,09,01,16.10
2012,08,06,09,02,16.10
2012,08,06,09,03,16.10
2012,08,06,09,04,16.10
2012,08,06,09,05,16.10
2012,08,06,09,06,16.10
2012,08,06,09,07,16.10
2012,08,06,09,08,16.10
2012,08,06,09,09,16.20
2012,08,06,09,10,16.20
2012,08,06,09,11,16.20
2012,08,06,09,12,16.20
2012,08,06,09,13,16.20
2012,08,06,09,14,16.20
2012,08,06,09,15,16.20
2012,08,06,09,16,16.20
2012,08,06,09,17,16.10
2012,08,06,09,18,16.10
2012,08,06,09,19,16.10
2012,08,06,09,20,16.10
2012,08,06,09,21,16.10
2012,08,06,09,22,16.10
2012,08,06,09,23,16.10
2012,08,06,09,24,16.00
2012,08,06,09,25,16.00
2012,08,06,09,26,15.90
2012,08,06,09,27,15.90
2012,08,06,09,28,15.90
2012,08,06,09,29,15.80
2012,08,06,09,30,15.80
2012,08,06,09,31,15.80
2012,08,06,09,32,15.70
2012,08,06,09,33,15.70
2012,08,06,09,34,15.60
2012,08,06,09,35,15.60
2012,08,06,09,36,15.60
2012,08,06,09,37,15.60
2012,08,06,09,38,15.60
2012,08,06,09,39,15.60
2012,08,06,09,40,15.50
2012,08,06,09,41,15.50
2012,08,06,09,42,15.50
2012,08,06,09,43,15.40
2012,08,06,09,44,15.40
2012,08,06,09,45,15.50
2012,08,06,09,46,15.50
2012,08,06,09,47,15.50
2012,08,06,09,48,15.60
2012,08,06,09,49,15.60
2012,08,06,09,50,15.60
2012,08,06,09,51,15.60
2012,08,06,09,52,15.60
2012,08,06,09,53,15.60
2012,08,06,09,54,15.60
2012,08,06,09,55,15.60
2012,08,06,09,56,15.60
2012,08,06,09,57,15.50
2012,08,06,09,58,15.50
2012,08,06,09,59,15.50
2012,08,06,10,00,15.50
2012,08,06,10,01,15.40
2012,08,06,10,02,15.40
2012,08,06,10,03,15.40
2012,08,06,10,04,15.40
2012,08,06,10,05,15.40
2012,08,06,10,06,15.40
2012,08,06,10,07,15.40
2012,08,06,10,08,15.40
2012,08,06,10,09,15.40
2012,08,06,10,10,15.40
2012,08,06,10,11,15.40
2012,08,06,10,12,15.40
2012,08,06,10,13,15.40
2012,08,06,10,14,15.40
2012,08,06,10,15,15.40
2012,08,06,10,16,15.40
2012,08,06,10,17,15.40
2012,08,06,10,18,15.40
2012,08,06,10,19,15.30
2012,08,06,10,20,15.30
2012,08,06,10,21,15.30
2012,08,06,10,22,15.30
2012,08,06,10,23,15.30
2012,08,06,10,24,15.20
2012,08,06,10,25,15.20
2012,08,06,10,26,15.20
2012,08,06,10,27,15.20
2012,08,06,10,28,15.20
2012,08,06,10,29,15.20
2012,08,06,10,30,15.20
2012,08,06,10,31,15.20
2012,08,06,10,32,15.20
2012,08,06,10,33,15.20
2012,08,06,10,34,15.20
2012,08,06,10,35,15.20
2012,08,06,10,36,15.20
2012,08,06,10,37,15.20
2012,08,06,10,38,15.20
2012,08,06,10,39,15.20
2012,08,06,10,40,15.20
2012,08,06,10,41,15.20
2012,08,06,10,42,15.20
2012,08,06,10,43,15.20
2012,08,06,10,44,15.10
2012,08,06,10,45,15.10
2012,08,06,10,46,15.10
2012,08,06,10,47,15.10
2012,08,06,10,48,15.10
2012,08,06,10,49,15.10
2012,08,06,10,50,15.10
2012,08,06,10,51,15.10
2012,08,06,10,52,15.10
2012,08,06,10,53,15.10
2012,08,06,10,54,15.10
2012,08,06,10,55,15.10
2012,08,06,10,56,15.20
2012,08,06,10,57,15.20
2012,08,06,10,58,15.20
2012,08,06,10,59,15.20
2012,08,06,11,00,15.20
2012,08,06,11,01,15.20
2012,08,06,11,02,15.20
2012,08,06,11,03,15.20
2012,08,06,11,04,15.20
2012,08,06,11,05,15.20
2012,08,06,11,06,15.20
2012,08,06,11,07,15.20
2012,08,06,11,08,15.20
2012,08,06,11,09,15.20
2012,08,06,11,10,15.20
2012,08,06,11,11,15.20
2012,08,06,11,12,15.20
2012,08,06,11,13,15.20
2012,08,06,11,14,15.10
2012,08,06,11,15,15.10
2012,08,06,11,16,15.10
2012,08,06,11,17,15.10
2012,08,06,11,18,15.10
2012,08,06,11,19,15.10
2012,08,06,11,20,15.10
2012,08,06,11,21,15.10
2012,08,06,11,22,15.10
2012,08,06,11,23,15.10
2012,08,06,11,24,15.10
2012,08,06,11,25,15.10
2012,08,06,11,26,15.10
2012,08,06,11,27,15.10
2012,08,06,11,28,15.10
2012,08,06,11,29,15.10
2012,08,06,11,30,15.10
2012,08,06,11,31,15.10
2012,08,06,11,32,15.10
2012,08,06,11,33,15.10
2012,08,06,11,34,15.10
2012,08,06,11,35,15.10
2012,08,06,11,36,15.10
2012,08,06,11,37,15.10
2012,08,06,11,38,15.20
2012,08,06,11,39,15.20
2012,08,06,11,40,15.20
2012,08,06,11,41,15.20
2012,08,06,11,42,15.20
2012,08,06,11,43,15.20
2012,08,06,11,44,15.20
2012,08,06,11,45,15.20
2012,08,06,11,46,15.20
2012,08,06,11,47,15.20
2012,08,06,11,48,15.30
2012,08,06,11,49,15.30
2012,08,06,11,50,15.30
2012,08,06,11,51,15.30
2012,08,06,11,52,15.30
2012,08,06,11,53,15.30
2012,08,06,11,54,15.30
2012,08,06,11,55,15.30
2012,08,06,11,56,15.30
2012,08,06,11,57,15.30
2012,08,06,11,58,15.30
2012,08,06,11,59,15.30
2012,08,06,12,00,15.30
2012,08,06,12,01,15.30
2012,08,06,12,02,15.30
2012,08,06,12,03,15.30
2012,08,06,12,04,15.30
2012,08,06,12,05,15.30
2012,08,06,12,06,15.40
2012,08,06,12,07,15.40
2012,08,06,12,08,15.40
2012,08,06,12,09,15.40
2012,08,06,12,10,15.40
2012,08,06,12,11,15.40
2012,08,06,12,12,15.40
2012,08,06,12,13,15.40
2012,08,06,12,14,15.40
2012,08,06,12,15,15.40
2012,08,06,12,16,15.40
2012,08,06,12,17,15.50
2012,08,06,12,18,15.50
2012,08,06,12,19,15.50
2012,08,06,12,20,15.40
2012,08,06,12,21,15.40
2012,08,06,12,22,15.40
2012,08,06,12,23,15.40
2012,08,06,12,24,15.50
2012,08,06,12,25,15.50
2012,08,06,12,26,15.50
2012,08,06,12,27,15.40
2012,08,06,12,28,15.40
2012,08,06,12,29,15.40
2012,08,06,12,30,15.40
2012,08,06,12,31,15.50
2012,08,06,12,32,15.50
2012,08,06,12,33,15.50
2012,08,06,12,34,15.50
2012,08,06,12,35,15.50
2012,08,06,12,36,15.50
2012,08,06,12,37,15.50
2012,08,06,12,38,15.50
2012,08,06,12,39,15.50
2012,08,06,12,40,15.50
2012,08,06,12,41,15.60
2012,08,06,12,42,15.50
2012,08,06,12,43,15.50
2012,08,06,12,44,15.50
2012,08,06,12,45,15.50
2012,08,06,12,46,15.50
2012,08,06,12,47,15.60
2012,08,06,12,48,15.50
2012,08,06,12,49,15.50
2012,08,06,12,50,15.50
2012,08,06,12,51,15.50
2012,08,06,12,52,15.50
2012,08,06,12,53,15.50
2012,08,06,12,54,15.50
2012,08,06,12,55,15.60
2012,08,06,12,56,15.60
2012,08,06,12,57,15.60
2012,08,06,12,58,15.60
2012,08,06,12,59,15.60
2012,08,06,13,00,15.60
2012,08,06,13,01,15.60
2012,08,06,13,02,15.60
2012,08,06,13,03,15.60
2012,08,06,13,04,15.60
2012,08,06,13,05,15.60
2012,08,06,13,06,15.60
2012,08,06,13,07,15.60
2012,08,06,13,08,15.60
2012,08,06,13,09,15.50
2012,08,06,13,10,15.60
2012,08,06,13,11,15.60
2012,08,06,13,12,15.60
2012,08,06,13,13,15.60
2012,08,06,13,14,15.60
2012,08,06,13,15,15.70
2012,08,06,13,16,15.70
2012,08,06,13,17,15.70
2012,08,06,13,18,15.70
2012,08,06,13,19,15.80
2012,08,06,13,20,15.80
2012,08,06,13,21,15.80
2012,08,06,13,22,15.80
2012,08,06,13,23,15.80
2012,08,06,13,24,15.80
2012,08,06,13,25,15.80
2012,08,06,13,26,15.80
2012,08,06,13,27,15.80
2012,08,06,13,28,15.80
2012,08,06,13,29,15.80
2012,08,06,13,30,15.80
2012,08,06,13,31,15.70
2012,08,06,13,32,15.70
2012,08,06,13,33,15.70
2012,08,06,13,34,15.70
2012,08,06,13,35,15.70
2012,08,06,13,36,15.60
2012,08,06,13,37,15.60
2012,08,06,13,38,15.70
2012,08,06,13,39,15.70
2012,08,06,13,40,15.70
2012,08,06,13,41,15.70
2012,08,06,13,42,15.70
2012,08,06,13,43,15.70
2012,08,06,13,44,15.70
2012,08,06,13,45,15.70
2012,08,06,13,46,15.70
2012,08,06,13,47,15.70
2012,08,06,13,48,15.70
2012,08,06,13,49,15.70
2012,08,06,13,50,15.70
2012,08,06,13,51,15.70
2012,08,06,13,52,15.80
2012,08,06,13,53,15.80
2012,08,06,13,54,15.80
2012,08,06,13,55,15.90
2012,08,06,13,56,15.90
2012,08,06,13,57,15.90
2012,08,06,13,58,15.90
2012,08,06,13,59,15.90
2012,08,06,14,00,15.90
2012,08,06,14,01,15.90
2012,08,06,14,02,16.00
2012,08,06,14,03,16.00
2012,08,06,14,04,16.00
2012,08,06,14,05,16.00
2012,08,06,14,06,16.00
2012,08,06,14,07,16.00
2012,08,06,14,08,15.90
2012,08,06,14,09,15.90
2012,08,06,14,10,15.90
2012,08,06,14,11,15.90
2012,08,06,14,12,15.90
2012,08,06,14,13,15.90
2012,08,06,14,14,15.90
2012,08,06,14,15,15.90
2012,08,06,14,16,15.90
2012,08,06,14,17,15.90
2012,08,06,14,18,16.00
2012,08,06,14,19,16.00
2012,08,06,14,20,16.00
2012,08,06,14,21,16.00
2012,08,06,14,22,16.10
2012,08,06,14,23,16.10
2012,08,06,14,24,16.10
2012,08,06,14,25,16.10
2012,08,06,14,26,16.20
2012,08,06,14,27,16.20
2012,08,06,14,28,16.20
2012,08,06,14,29,16.20
2012,08,06,14,30,16.20
2012,08,06,14,31,16.20
2012,08,06,14,32,16.20
2012,08,06,14,33,16.20
2012,08,06,14,34,16.20
2012,08,06,14,35,16.20
2012,08,06,14,36,16.20
2012,08,06,14,37,16.30
2012,08,06,14,38,16.20
2012,08,06,14,39,16.20
2012,08,06,14,40,16.20
2012,08,06,14,41,16.20
2012,08,06,14,42,16.20
2012,08,06,14,43,16.20
2012,08,06,14,44,16.20
2012,08,06,14,45,16.30
2012,08,06,14,46,16.30
2012,08,06,14,47,16.30
2012,08,06,14,48,16.30
2012,08,06,14,49,16.40
2012,08,06,14,50,16.40
2012,08,06,14,51,16.50
2012,08,06,14,52,16.50
2012,08,06,14,53,16.60
2012,08,06,14,54,16.60
2012,08,06,14,55,16.60
2012,08,06,14,56,16.70
2012,08,06,14,57,16.70
2012,08,06,14,58,16.80
2012,08,06,14,59,16.70
2012,08,06,15,00,16.60
2012,08,06,15,01,16.60
2012,08,06,15,02,16.60
2012,08,06,15,03,16.60
2012,08,06,15,04,16.60
2012,08,06,15,05,16.50
2012,08,06,15,06,16.50
2012,08,06,15,07,16.50
2012,08,06,15,08,16.50
2012,08,06,15,09,16.50
2012,08,06,15,10,16.40
2012,08,06,15,11,16.40
2012,08,06,15,12,16.40
2012,08,06,15,13,16.30
2012,08,06,15,14,16.30
2012,08,06,15,15,16.30
2012,08,06,15,16,16.20
2012,08,06,15,17,16.20
2012,08,06,15,18,16.20
2012,08,06,15,19,16.30
2012,08,06,15,20,16.20
2012,08,06,15,21,16.20
2012,08,06,15,22,16.10
2012,08,06,15,23,16.00
2012,08,06,15,24,15.90
2012,08,06,15,25,15.90
2012,08,06,15,26,15.90
2012,08,06,15,27,15.90
2012,08,06,15,28,15.90
2012,08,06,15,29,15.90
2012,08,06,15,30,15.90
2012,08,06,15,31,15.90
2012,08,06,15,32,16.00
2012,08,06,15,33,16.00
2012,08,06,15,34,16.00
2012,08,06,15,35,16.10
2012,08,06,15,36,16.10
2012,08,06,15,37,16.00
2012,08,06,15,38,16.00
2012,08,06,15,39,16.00
2012,08,06,15,40,16.00
2012,08,06,15,41,15.90
2012,08,06,15,42,15.90
2012,08,06,15,43,15.90
2012,08,06,15,44,15.90
2012,08,06,15,45,15.80
2012,08,06,15,46,15.80
2012,08,06,15,47,15.80
2012,08,06,15,48,15.70
2012,08,06,15,49,15.70
2012,08,06,15,50,15.70
2012,08,06,15,51,15.70
2012,08,06,15,52,15.70
2012,08,06,15,53,15.70
2012,08,06,15,54,15.60
2012,08,06,15,55,15.60
2012,08,06,15,56,15.60
2012,08,06,15,57,15.60
2012,08,06,15,58,15.60
2012,08,06,15,59,15.50
2012,08,06,16,00,15.40
2012,08,06,16,01,15.40
2012,08,06,16,02,15.40
2012,08,06,16,03,15.30
2012,08,06,16,04,15.30
2012,08,06,16,05,15.30
2012,08,06,16,06,15.30
2012,08,06,16,07,15.30
2012,08,06,16,08,15.20
2012,08,06,16,09,15.20
2012,08,06,16,10,15.20
2012,08,06,16,11,15.20
2012,08,06,16,12,15.20
2012,08,06,16,13,15.20
2012,08,06,16,14,15.20
2012,08,06,16,15,15.20
2012,08,06,16,16,15.20
2012,08,06,16,17,15.20
2012,08,06,16,18,15.10
2012,08,06,16,19,15.10
2012,08,06,16,20,15.10
2012,08,06,16,21,15.20
2012,08,06,16,22,15.20
2012,08,06,16,23,15.20
2012,08,06,16,24,15.20
2012,08,06,16,25,15.20
2012,08,06,16,26,15.20
2012,08,06,16,27,15.20
2012,08,06,16,28,15.20
2012,08,06,16,29,15.20
2012,08,06,16,30,15.20
2012,08,06,16,31,15.20
2012,08,06,16,32,15.20
2012,08,06,16,33,15.20
2012,08,06,16,34,15.20
2012,08,06,16,35,15.30
2012,08,06,16,36,15.30
2012,08,06,16,37,15.30
2012,08,06,16,38,15.30
2012,08,06,16,39,15.20
2012,08,06,16,40,15.30
2012,08,06,16,41,15.30
2012,08,06,16,42,15.20
2012,08,06,16,43,15.20
2012,08,06,16,44,15.20
2012,08,06,16,45,15.10
2012,08,06,16,46,15.10
2012,08,06,16,47,15.10
2012,08,06,16,48,15.00
2012,08,06,16,49,15.10
2012,08,06,16,50,15.10
2012,08,06,16,51,15.10
2012,08,06,16,52,15.10
2012,08,06,16,53,15.00
2012,08,06,16,54,15.00
2012,08,06,16,55,15.00
2012,08,06,16,56,15.00
2012,08,06,16,57,15.00
2012,08,06,16,58,15.00
2012,08,06,16,59,15.00
2012,08,06,17,00,15.00
2012,08,06,17,01,15.00
2012,08,06,17,02,15.00
2012,08,06,17,03,15.00
2012,08,06,17,04,15.00
2012,08,06,17,05,15.00
2012,08,06,17,06,14.90
2012,08,06,17,07,14.90
2012,08,06,17,08,14.90
2012,08,06,17,09,14.90
2012,08,06,17,10,14.90
2012,08,06,17,11,14.90
2012,08,06,17,12,15.00
2012,08,06,17,13,15.00
2012,08,06,17,14,15.00
2012,08,06,17,15,15.10
2012,08,06,17,16,15.00
2012,08,06,17,17,15.00
2012,08,06,17,18,15.00
2012,08,06,17,19,15.00